Hamilton Rbg, Ontario

6:56 AM EST on February 25, 2017 (GMT -0500)
Hamilton

Weather History for CXHM - August, 2013

Change the Weather History Date:

Tuesday, August 27, 2013

  Actual Average Record
Temperature  
Mean Temperature 74 °F -  
Max Temperature 84 °F - - ()
Min Temperature 65 °F - - ()
Cooling Degree Days 10    
Growing Degree Days 24 (Base 50)    
Moisture  
Dew Point 68 °F    
Average Humidity 86    
Maximum Humidity 96    
Minimum Humidity 57    
Precipitation  
Precipitation 0.24 in - - ()
Sea Level Pressure  
Sea Level Pressure 29.88 in    
Wind  
Wind Speed 2 mph ()    
Max Wind Speed 5 mph    
Max Gust Speed -    
T = Trace of Precipitation, MM = Missing Value Source: Averaged Metar Reports

Daily Weather History Graph

Daily Weather History Graph

Search for Another Location

Airport or City:

Trip Planner

Search our weather history database for the weather conditions in past years. The results will help you decide how hot, cold, wet, or windy it might be!

Date:

Astronomy

Aug. 27, 2013 Rise Set
Actual Time 6:38 AM EDT 8:02 PM EDT
Civil Twilight 6:08 AM EDT 8:32 PM EDT
Nautical Twilight 5:32 AM EDT 9:08 PM EDT
Astronomical Twilight 4:54 AM EDT 9:45 PM EDT
Moon 11:42 PM EDT (8/27) 1:47 PM EDT (8/27)
Length of Visible Light 14h 23m
Length of Day
13h 24m
Waning Gibbous, 57% of the Moon is Illuminated
Aug 27
Waning Gibbous
Aug 28
Last Quarter
Sep 5
New
Sep 12
First Quarter
Sep 19
Full

Hourly Weather History & Observations

Time (EDT) Temp. Heat Index Dew Point Humidity Pressure Visibility Wind Dir Wind Speed Gust Speed Precip Events Conditions
12:00 AM 69.3 °F - 67.3 °F 93% 29.91 in - West 2.3 mph - N/A   Unknown
1:00 AM 69.1 °F - 67.5 °F 95% 29.91 in - WSW 1.2 mph - N/A   Unknown
2:00 AM 67.8 °F - 66.4 °F 95% 29.91 in - Calm Calm - N/A   Unknown
3:00 AM 66.9 °F - 65.5 °F 95% 29.91 in - WNW 2.3 mph - N/A   Unknown
4:00 AM 67.1 °F - 65.8 °F 96% 29.89 in - West 1.2 mph - N/A   Unknown
5:00 AM 68.0 °F - 66.7 °F 96% 29.89 in - West 3.5 mph - N/A   Unknown
6:00 AM 67.1 °F - 65.5 °F 95% 29.90 in - West 1.2 mph - N/A   Unknown
7:00 AM 66.2 °F - 64.8 °F 95% 29.90 in - NE 1.2 mph - N/A   Unknown
8:00 AM 68 °F - 67 °F 95% 29.91 in - West 3.5 mph - -  
8:00 AM 68.2 °F - 66.9 °F 96% 29.91 in - West 3.5 mph - N/A   Unknown
9:00 AM 73.2 °F - 69.1 °F 87% 29.90 in - SSW 1.2 mph - N/A   Unknown
10:00 AM 77.5 °F - 70.0 °F 77% 29.89 in - SSW 1.2 mph - N/A   Unknown
11:00 AM 79.7 °F - 68.4 °F 68% 29.90 in - SW 1.2 mph - N/A   Unknown
12:00 PM 82.9 °F 87.5 °F 70.9 °F 67% 29.89 in - SSW 2.3 mph - N/A   Unknown
1:00 PM 82.0 °F 86.3 °F 70.9 °F 69% 29.88 in - SE 4.6 mph - N/A   Unknown
2:00 PM 83 °F - 70 °F 57% 29.86 in - ESE 3.5 mph - -  
2:00 PM 82.9 °F 87.2 °F 70.3 °F 66% 29.86 in - ESE 3.5 mph - N/A   Unknown
3:00 PM 77.2 °F - 68.7 °F 75% 29.84 in - SSE 3.5 mph - N/A   Unknown
4:00 PM 77.2 °F - 69.3 °F 76% 29.84 in - East 4.6 mph - N/A   Unknown
5:00 PM 75.7 °F - 68.5 °F 78% 29.84 in - East 2.3 mph - N/A   Unknown
6:00 PM 73.6 °F - 69.4 °F 87% 29.84 in - North 1.2 mph - N/A   Unknown
7:00 PM 73.4 °F - 70.2 °F 90% 29.84 in - SSE 1.2 mph - N/A   Unknown
8:00 PM 72 °F - 70 °F 90% 29.85 in - South 2.3 mph - -  
8:00 PM 72.0 °F - 69.6 °F 92% 29.85 in - South 2.3 mph - 0.09 in   Unknown
9:00 PM 70.5 °F - 68.2 °F 92% 29.85 in - WNW 1.2 mph - N/A   Unknown
10:00 PM 70.5 °F - 68.4 °F 93% 29.87 in - WNW 3.5 mph - 0.11 in   Unknown
11:00 PM 70.3 °F - 68.5 °F 94% 29.86 in - Calm Calm - 0.13 in   Unknown